CZ-6A DEB, 54285

Orbit data source: Space-Track

CZ-6A DEB, 54285 is space debris in SSO originally from a launch on Fri, 11 Nov 2022 UTC launched from the Taiyaun Space Center, China (TSC). Debris objects in space refer to the collection of defunct objects orbiting the Earth. Examples of debris include non-operational satellites, rocket bodies, and fragments generated from explosions, collisions, or faulty payload assembly.

Loading next visibility...
Identifier
54285, 2022-151AC
Orbit
SSO
Country
Flag of CNCN / PRC
Related business
Manufacturer
SAST
Mission
Spacecraft
Bus & Motor
Unknown
Mass
Unknown
Launch date (UTC)
2022-11-11 (4 years ago)
Launch vehicle
Unknown
Launch site
Taiyaun Space Center, China (TSC)
Object type
Payload
Rocket body
Debris
Shape & HBR
Unknown shape, 0.1 m
Radar Cross Section
Medium (>0.1 m² and <1 m²)

Expand to show TLE details & history
Last TLE update: 13 hours ago

TLE from 13 hours ago
0 CZ-6A DEB
1 54285U 22151AC  26254.45629226  .00001329  00000-0  73349-3 0  9994
2 54285  98.8650 248.5304 0071676 120.9754 239.8486 14.11882075196242
Epoch: 2026-09-11T10:57Z
TLE epoch observation values (Epoch: 2026-09-11T10:57:03.651Z)
Latitude
0.00006°
Longitude
93.78579°
Altitude
882.152 km
Speed
7.398 km/s
True Right ascension
16h 34m 07s
True Declination
0° 00' 00"
Sunlit
Object was in daylight at epoch
Visualization orbit readout
Latitude
Unknown
Longitude
Unknown
Altitude
Unknown
Speed
Unknown
Apparent Right ascension
Unknown
Apparent Declination
Unknown
Sunlit
N/A
Visualization observer readout
Local Sidereal Time
15:58:02
Azimuth
Unknown
Elevation
Unknown
Doppler factor
Unknown
Orbital elements
Apogee altitude
901.924 km
Perigee altitude
798.306 km
Semi-major axis
7,228.252 km
Eccentricity
0.00717
Inclination
98.865°
RAAN
248.5304°
Arg. of periapsis
120.9754°
True anomaly
239.14158°
Mean anomaly
239.8486°
Eccentric anomaly
239.49477°
Mean motion
3.53178 °/min
Orbital period
101.93 mins
BSTAR
0.00073349
Loading maneuver chart data...
Computing Atmospheric mass density...
Loading historical data...
Loading historical data...
Loading historical data...
Loading historical data...
Loading historical data...
Loading historical data...
Loading historical data...

Documentation

Showing up to 5 results
|